This is the latest recevied weather packets stored in our database for station/object KE4EST. If no packets are shown the sender has not sent any weather packets the latest 10 day(s).
| Time | Temp. | Humidity | Pressure | Rain* | Wind** | Luminosity | Snow |
|---|---|---|---|---|---|---|---|
| 1778115700 | 16.11° C | 99% | 1013.8 hPa | 4.32 mm | - | 0 W/m² | - |
| 1778115397 | 16.11° C | 99% | 1013.3 hPa | 7.87 mm | - | 0 W/m² | - |
| 1778115093 | 16.11° C | 99% | 1014.3 hPa | 7.87 mm | - | 0 W/m² | - |
| 1778114790 | 16.11° C | 99% | 1015.8 hPa | 3.56 mm | - | 0 W/m² | - |
| 1778114488 | 16.11° C | 99% | 1015.5 hPa | 3.05 mm | - | 0 W/m² | - |
| 1778114184 | 16.11° C | 99% | 1014.8 hPa | 3.05 mm | - | 0 W/m² | - |
| 1778113879 | 16.67° C | 99% | 1015 hPa | 4.32 mm | - | 0 W/m² | - |
| 1778113576 | 16.67° C | 99% | 1014.8 hPa | 8.89 mm | - | 0 W/m² | - |
| 1778113271 | 16.67° C | 99% | 1014.5 hPa | 6.1 mm | - | 1 W/m² | - |
| 1778112968 | 16.67° C | 99% | 1015.2 hPa | 0 mm | - | 0 W/m² | - |
| 1778112666 | 16.67° C | 99% | 1015 hPa | 3.05 mm | - | 1 W/m² | - |
| 1778112362 | 16.67° C | 99% | 1014.7 hPa | 4.32 mm | - | 2 W/m² | - |
| 1778112058 | 16.67° C | 99% | 1014.4 hPa | 4.83 mm | - | 2 W/m² | - |
| 1778111756 | 16.67° C | 99% | 1014.7 hPa | 9.65 mm | - | 2 W/m² | - |
| 1778111450 | 16.67° C | 99% | 1014.4 hPa | 10.67 mm | - | 4 W/m² | - |
| 1778111148 | 16.67° C | 99% | 1015 hPa | 6.1 mm | - | 3 W/m² | - |
| 1778110845 | 16.67° C | 99% | 1014.7 hPa | 7.11 mm | - | 3 W/m² | - |
| 1778110542 | 16.67° C | 99% | 1014.1 hPa | 6.1 mm | - | 3 W/m² | - |
| 1778110239 | 16.67° C | 99% | 1014.2 hPa | 0 mm | - | 1 W/m² | - |
| 1778109935 | 16.67° C | 99% | 1014.2 hPa | 0 mm | - | 1 W/m² | - |
| 1778109630 | 16.67° C | 99% | 1013.8 hPa | 0 mm | - | 2 W/m² | - |
| 1778109328 | 16.67° C | 99% | 1013.1 hPa | 4.83 mm | - | 11 W/m² | - |
| 1778109026 | 16.67° C | 99% | 1013 hPa | 6.6 mm | - | 29 W/m² | - |
| 1778108722 | 16.67° C | 99% | 1013.7 hPa | 3.05 mm | - | 13 W/m² | - |
| 1778108420 | 16.67° C | 99% | 1014.3 hPa | 4.32 mm | - | 6 W/m² | - |
* Rain latest hour (hover to see other rain measurements)
** Current wind speed in m/s (hover to see current wind gust speed)